This is the latest recevied weather packets stored in our database for station/object KB1YYC. If no packets are shown the sender has not sent any weather packets the latest 10 day(s).
| Time | Temp. | Humidity | Pressure | Rain* | Wind** | Luminosity | Snow |
|---|---|---|---|---|---|---|---|
| 1778214513 | 6.11° C | 62% | 1008 hPa | 0 mm | - | 0 W/m² | - |
| 1778214211 | 6.11° C | 59% | 1007.9 hPa | 0 mm | - | 0 W/m² | - |
| 1778213908 | 6.67° C | 59% | 1007.9 hPa | 0 mm | - | 0 W/m² | - |
| 1778213604 | 6.67° C | 57% | 1008.1 hPa | 0 mm | - | 0 W/m² | - |
| 1778213301 | 7.22° C | 55% | 1008.2 hPa | 0 mm | - | 0 W/m² | - |
| 1778212999 | 7.22° C | 56% | 1008.1 hPa | 0 mm | - | 0 W/m² | - |
| 1778212695 | 7.22° C | 55% | 1008.2 hPa | 0 mm | - | 0 W/m² | - |
| 1778212393 | 7.78° C | 54% | 1008.3 hPa | 0 mm | - | 0 W/m² | - |
| 1778212090 | 7.78° C | 52% | 1008.2 hPa | 0 mm | - | 0 W/m² | - |
| 1778211787 | 7.22° C | 52% | 1008.1 hPa | 0 mm | - | 0 W/m² | - |
| 1778211483 | 7.22° C | 55% | 1008.1 hPa | 0 mm | - | 0 W/m² | - |
| 1778211182 | 7.22° C | 56% | 1008 hPa | 0 mm | - | 0 W/m² | - |
| 1778210879 | 7.22° C | 60% | 1008.1 hPa | 0 mm | - | 0 W/m² | - |
| 1778210576 | 7.22° C | 57% | 1008.1 hPa | 0 mm | - | 0 W/m² | - |
| 1778210273 | 7.78° C | 58% | 1008.1 hPa | 0 mm | - | 0 W/m² | - |
| 1778209969 | 7.78° C | 51% | 1008.2 hPa | 0 mm | - | 0 W/m² | - |
| 1778209666 | 7.78° C | 55% | 1008.2 hPa | 0 mm | - | 0 W/m² | - |
| 1778209363 | 7.78° C | 55% | 1008.1 hPa | 0 mm | - | 0 W/m² | - |
| 1778209060 | 7.78° C | 53% | 1008.1 hPa | 0 mm | - | 0 W/m² | - |
| 1778208757 | 7.78° C | 53% | 1008.1 hPa | 0 mm | - | 0 W/m² | - |
| 1778208453 | 8.33° C | 54% | 1008.1 hPa | 0 mm | - | 0 W/m² | - |
| 1778208150 | 7.78° C | 55% | 1008.1 hPa | 0 mm | - | 0 W/m² | - |
| 1778207847 | 7.78° C | 60% | 1008.1 hPa | 0 mm | - | 0 W/m² | - |
| 1778207544 | 8.33° C | 59% | 1007.9 hPa | 0 mm | - | 0 W/m² | - |
| 1778207240 | 8.33° C | 58% | 1007.9 hPa | 0 mm | - | 0 W/m² | - |
* Rain latest hour (hover to see other rain measurements)
** Current wind speed in m/s (hover to see current wind gust speed)